Terminal Aerodrome Forecast
Issued by NWS Topeka, KS

Home | Current Version | Previous Version | Graphics & Text | Print | Product List | Glossary On
Versions: 1 2 3 4 5 6 7 8 9 10 11 12 13 14 15 16 17 18 19
000
FTUS43 KTOP 131100
TAFTOP
TAF
KTOP 131131Z 1312/1412 00000KT 1/2SM FG VV002
      TEMPO 1312/1314 3SM BR SKC
     FM131400 13007KT P6SM SKC
     FM140100 13002KT P6SM BKN250=

USA.gov is the U.S. government's official web portal to all federal, state and local government web resources and services.